Regional Weather Roundup
Issued by NWS

Home | Current Version | Previous Version | Text Only | Print | Product List | Glossary On
Versions: 1 2 3 4 5 6 7 8 9 10 11 12 13 14 15 16 17 18 19 20 21 22 23 24 25 26 27 28 29 30 31 32 33 34 35 36 37 38 39 40 41 42 43 44 45 46 47 48 49 50
000
ASUS43 KTOP 270759
RWRKS

WEATHER ROUNDUP FOR KANSAS
NATIONAL WEATHER SERVICE GOODLAND KS
200 AM CST THU NOV 27 2014

NOTE:  "FAIR" INDICATES FEW OR NO CLOUDS BELOW 12,000 FEET WITH NO
SIGNIFICANT WEATHER AND/OR OBSTRUCTIONS TO VISIBILITY.

KSZ001>006-013>018-027>032-041>047-270900-
NORTHWEST KANSAS

CITY           SKY/WX    TMP DP  RH WIND       PRES   REMARKS
GOODLAND       CLEAR     25  20  81 S8        30.33F
HAYS           PTCLDY    28  14  54 E7        30.43S
HILL CITY      CLOUDY    30  18  60 SE5       30.42R
RUSSELL        CLEAR     23  17  78 S3        30.43S
$$

KSZ061>065-074>080-084>089-270900-
SOUTHWEST KANSAS

CITY           SKY/WX    TMP DP  RH WIND       PRES   REMARKS
DODGE CITY     PTCLDY    23  15  71 S6        30.41F
ELKHART          N/A     27  15  61 S8          N/A
GARDEN CITY    PTCLDY    20  15  81 SW6       30.39F
GREAT BEND     PTCLDY    30  16  55 E3        30.45R
LIBERAL        PTCLDY    21  10  63 CALM      30.44S
$$

KSZ066>073-081>083-090>101-270900-
SOUTHEAST KANSAS

CITY           SKY/WX    TMP DP  RH WIND       PRES   REMARKS
CHANUTE        CLEAR     25  20  81 N9        30.45F
COFFEYVILLE    CLEAR     27  21  78 N10       30.47R WCI  17
HUTCHINSON     CLEAR     26  18  71 N5        30.46R
MEDICINE LODGE   N/A     28  20  71 CALM      30.47R
NEWTON         CLEAR     25  14  63 N8        30.45R
PARSONS        CLEAR     27  21  78 N10       30.46R WCI  17
WICHITA INTL   PTCLDY    29  18  63 N10       30.45R WCI  20
WICHITA JABRA  CLEAR     23  18  81 N7        30.44R
WINFIELD       PTCLDY    28  21  75 N9        30.47R
$$

KSZ007>012-019>026-033>040-048>060-102>105-270900-
NORTHEAST KANSAS

CITY           SKY/WX    TMP DP  RH WIND       PRES   REMARKS
CONCORDIA      CLEAR     20  15  81 NE5       30.47R
EMPORIA        CLEAR     20  17  88 N5        30.46F
LAWRENCE       CLOUDY    26  19  74 NW12      30.49R WCI  16
MANHATTAN      CLEAR     16  13  88 CALM      30.50S
OLATHE IND     CLOUDY    27  21  78 NW14      30.47R WCI  16
OLATHE EXE     CLOUDY    27  21  78 NW12G21   30.45R WCI  17
SALINA         MOCLDY    27  17  66 NE5       30.48S
TOPEKA BILLARD CLOUDY    27  20  75 NW7       30.49S
TOPEKA FORBES  CLOUDY    26  19  74 N7        30.47F
$$



USA.gov is the U.S. government's official web portal to all federal, state and local government web resources and services.